When you browse on this site, cookies collect data to enhance your experience and personalize the content and advertising you see.
Visit our Privacy Policy to learn more. By continuing to use the site, you agree to this use of cookies and data.
  • în România
  • Lista ţărilor
  • Pe 7 zile
  • Temperatura apei
  • Meteo pe hartă
  • Widget-uri
  • user-avatar
    Intrare

    Meteo pe oră la Boa Vista

    Astăzi, 15 Noiembrie, Vineri

    Timp Temperatura Precipitaţii Vânt Presiune Umiditate
    00:00 +28°C° 0.4 mm 1 m/s 751 mmHg 79%
    01:00 +28°C° 0.4 mm 1 m/s 750 mmHg 81%
    02:00 +27°C° 0.4 mm 1 m/s 750 mmHg 84%
    03:00 +27°C° 0 mm 1 m/s 750 mmHg 85%
    04:00 +27°C° 0 mm 1 m/s 750 mmHg 86%
    05:00 +27°C° 0 mm 1 m/s 750 mmHg 87%
    06:00 +28°C° 0 mm 1 m/s 751 mmHg 83%
    07:00 +29°C° 0 mm 1 m/s 751 mmHg 79%
    08:00 +30°C° 0 mm 1 m/s 752 mmHg 75%
    09:00 +31°C° 0.4 mm 2 m/s 752 mmHg 68%
    10:00 +34°C° 0.4 mm 2 m/s 752 mmHg 60%
    11:00 +35°C° 0.4 mm 3 m/s 752 mmHg 53%
    12:00 +36°C° 0.3 mm 3 m/s 750 mmHg 52%
    13:00 +36°C° 0.3 mm 2 m/s 749 mmHg 50%
    14:00 +37°C° 0.3 mm 2 m/s 748 mmHg 48%
    15:00 +36°C° 0 mm 2 m/s 748 mmHg 52%
    16:00 +35°C° 0 mm 2 m/s 748 mmHg 55%
    17:00 +35°C° 0 mm 2 m/s 748 mmHg 59%
    18:00 +32°C° 0 mm 2 m/s 748 mmHg 63%
    19:00 +31°C° 0 mm 2 m/s 749 mmHg 67%
    20:00 +30°C° 0 mm 2 m/s 749 mmHg 71%
    21:00 +29°C° 0.3 mm 1 m/s 750 mmHg 75%
    22:00 +29°C° 0.3 mm 1 m/s 750 mmHg 78%
    23:00 +28°C° 0.3 mm 1 m/s 750 mmHg 82%

    Mâine, 16 Noiembrie, Sâmbătă

    Timp Temperatura Precipitaţii Vânt Presiune Umiditate
    00:00 +28°C° 0.3 mm 1 m/s 749 mmHg 83%
    01:00 +25°C° 0.3 mm 0 m/s 749 mmHg 84%
    02:00 +25°C° 0.3 mm 0 m/s 748 mmHg 86%
    03:00 +25°C° 0 mm 0 m/s 748 mmHg 86%
    04:00 +25°C° 0 mm 0 m/s 749 mmHg 86%
    05:00 +25°C° 0 mm 0 m/s 749 mmHg 87%
    06:00 +28°C° 0 mm 1 m/s 749 mmHg 82%
    07:00 +29°C° 0 mm 1 m/s 750 mmHg 78%
    08:00 +30°C° 0 mm 1 m/s 750 mmHg 74%
    09:00 +31°C° 0.3 mm 2 m/s 750 mmHg 68%
    10:00 +34°C° 0.3 mm 2 m/s 750 mmHg 62%
    11:00 +35°C° 0.3 mm 3 m/s 750 mmHg 56%
    12:00 +36°C° 0.2 mm 2 m/s 749 mmHg 53%
    13:00 +37°C° 0.2 mm 2 m/s 748 mmHg 49%
    14:00 +37°C° 0.2 mm 2 m/s 747 mmHg 46%
    15:00 +37°C° 0 mm 2 m/s 746 mmHg 48%
    16:00 +36°C° 0 mm 2 m/s 746 mmHg 51%
    17:00 +36°C° 0 mm 2 m/s 746 mmHg 53%
    18:00 +34°C° 0 mm 2 m/s 747 mmHg 57%
    19:00 +32°C° 0 mm 2 m/s 747 mmHg 61%
    20:00 +30°C° 0 mm 2 m/s 747 mmHg 66%
    21:00 +30°C° 0.5 mm 1 m/s 748 mmHg 71%
    22:00 +29°C° 0.5 mm 1 m/s 748 mmHg 76%
    23:00 +28°C° 0.5 mm 1 m/s 749 mmHg 82%

    Poimâine, 17 Noiembrie, Duminică

    Timp Temperatura Precipitaţii Vânt Presiune Umiditate
    00:00 +28°C° 0.1 mm 1 m/s 748 mmHg 82%
    01:00 +28°C° 0.1 mm 1 m/s 748 mmHg 82%
    02:00 +28°C° 0.1 mm 1 m/s 747 mmHg 82%
    03:00 +27°C° 0 mm 1 m/s 748 mmHg 83%
    04:00 +27°C° 0 mm 1 m/s 748 mmHg 83%
    05:00 +27°C° 0 mm 1 m/s 748 mmHg 84%
    06:00 +28°C° 0 mm 2 m/s 749 mmHg 81%
    07:00 +29°C° 0 mm 3 m/s 750 mmHg 78%
    08:00 +29°C° 0 mm 3 m/s 750 mmHg 74%
    09:00 +30°C° 1 mm 3 m/s 750 mmHg 71%
    10:00 +33°C° 1 mm 3 m/s 750 mmHg 67%
    11:00 +34°C° 1 mm 3 m/s 750 mmHg 64%
    12:00 +33°C° 1.8 mm 4 m/s 749 mmHg 68%
    13:00 +32°C° 1.8 mm 4 m/s 748 mmHg 72%
    14:00 +30°C° 1.8 mm 4 m/s 748 mmHg 76%
    15:00 +30°C° 1.1 mm 4 m/s 748 mmHg 78%
    16:00 +29°C° 1.1 mm 5 m/s 748 mmHg 80%
    17:00 +28°C° 1.1 mm 5 m/s 748 mmHg 83%
    18:00 +27°C° 0.2 mm 5 m/s 749 mmHg 86%
    19:00 +27°C° 0.2 mm 5 m/s 749 mmHg 88%
    20:00 +26°C° 0.2 mm 4 m/s 750 mmHg 91%
    21:00 +26°C° 1.1 mm 4 m/s 750 mmHg 92%
    22:00 +25°C° 1.1 mm 4 m/s 750 mmHg 93%
    23:00 +25°C° 1.1 mm 3 m/s 751 mmHg 94%

    18 Noiembrie, Luni

    Timp Temperatura Precipitaţii Vânt Presiune Umiditate
    00:00 +25°C° 1.5 mm 3 m/s 751 mmHg 94%
    01:00 +25°C° 1.5 mm 2 m/s 750 mmHg 93%
    02:00 +25°C° 1.5 mm 1 m/s 750 mmHg 93%
    03:00 +25°C° 1.2 mm 1 m/s 750 mmHg 94%
    04:00 +25°C° 1.2 mm 1 m/s 750 mmHg 94%
    05:00 +25°C° 1.2 mm 1 m/s 750 mmHg 95%
    06:00 +25°C° 2.1 mm 1 m/s 751 mmHg 95%
    07:00 +23°C° 2.1 mm 0 m/s 752 mmHg 95%
    08:00 +23°C° 2.1 mm 0 m/s 752 mmHg 96%
    09:00 +23°C° 1 mm 0 m/s 753 mmHg 94%
    10:00 +26°C° 1 mm 1 m/s 753 mmHg 93%
    11:00 +26°C° 1 mm 1 m/s 753 mmHg 91%
    12:00 +26°C° 0.8 mm 1 m/s 752 mmHg 92%
    13:00 +26°C° 0.8 mm 1 m/s 752 mmHg 92%
    14:00 +26°C° 0.8 mm 1 m/s 751 mmHg 92%
    15:00 +26°C° 0.5 mm 1 m/s 751 mmHg 92%
    16:00 +26°C° 0.5 mm 1 m/s 751 mmHg 92%
    17:00 +26°C° 0.5 mm 2 m/s 751 mmHg 91%
    18:00 +25°C° 0 mm 2 m/s 751 mmHg 92%
    19:00 +25°C° 0 mm 2 m/s 752 mmHg 93%
    20:00 +25°C° 0 mm 2 m/s 752 mmHg 95%
    21:00 +24°C° 0 mm 1 m/s 752 mmHg 95%
    22:00 +24°C° 0 mm 1 m/s 752 mmHg 95%
    23:00 +24°C° 0 mm 1 m/s 752 mmHg 95%

    19 Noiembrie, Marţi

    Timp Temperatura Precipitaţii Vânt Presiune Umiditate
    00:00 +24°C° 0 mm 1 m/s 752 mmHg 95%
    01:00 +24°C° 0 mm 1 m/s 751 mmHg 95%
    02:00 +22°C° 0 mm 0 m/s 751 mmHg 95%
    03:00 +21°C° 0 mm 0 m/s 751 mmHg 95%
    04:00 +21°C° 0 mm 0 m/s 751 mmHg 95%
    05:00 +21°C° 0 mm 0 m/s 751 mmHg 95%
    06:00 +24°C° 0 mm 1 m/s 751 mmHg 90%
    07:00 +26°C° 0 mm 1 m/s 752 mmHg 86%
    08:00 +27°C° 0 mm 1 m/s 752 mmHg 81%
    09:00 +29°C° 0 mm 2 m/s 752 mmHg 72%
    10:00 +31°C° 0 mm 2 m/s 752 mmHg 63%
    11:00 +33°C° 0 mm 3 m/s 752 mmHg 54%
    12:00 +34°C° 0 mm 3 m/s 751 mmHg 51%
    13:00 +35°C° 0 mm 2 m/s 750 mmHg 48%
    14:00 +36°C° 0 mm 2 m/s 750 mmHg 45%
    15:00 +35°C° 0 mm 2 m/s 749 mmHg 48%
    16:00 +35°C° 0 mm 2 m/s 749 mmHg 52%
    17:00 +33°C° 0 mm 1 m/s 749 mmHg 55%
    18:00 +32°C° 0.1 mm 1 m/s 749 mmHg 59%
    19:00 +30°C° 0.1 mm 1 m/s 750 mmHg 64%
    20:00 +29°C° 0.1 mm 1 m/s 750 mmHg 68%
    21:00 +29°C° 0.1 mm 1 m/s 750 mmHg 70%
    22:00 +28°C° 0.1 mm 1 m/s 751 mmHg 72%
    23:00 +28°C° 0.1 mm 1 m/s 751 mmHg 74%

    20 Noiembrie, Miercuri

    Timp Temperatura Precipitaţii Vânt Presiune Umiditate
    00:00 +28°C° 0 mm 1 m/s 750 mmHg 76%
    01:00 +27°C° 0 mm 2 m/s 750 mmHg 78%
    02:00 +27°C° 0 mm 2 m/s 750 mmHg 80%
    03:00 +27°C° 0.1 mm 2 m/s 750 mmHg 82%
    04:00 +26°C° 0.1 mm 2 m/s 750 mmHg 84%
    05:00 +26°C° 0.1 mm 2 m/s 750 mmHg 85%
    06:00 +27°C° 0.1 mm 3 m/s 751 mmHg 81%
    07:00 +28°C° 0.1 mm 3 m/s 752 mmHg 76%
    08:00 +29°C° 0.1 mm 4 m/s 753 mmHg 72%
    09:00 +30°C° 0.7 mm 4 m/s 752 mmHg 68%
    10:00 +33°C° 0.7 mm 4 m/s 752 mmHg 65%
    11:00 +34°C° 0.7 mm 3 m/s 752 mmHg 62%
    12:00 +34°C° 0.7 mm 3 m/s 751 mmHg 60%
    13:00 +35°C° 0.7 mm 3 m/s 750 mmHg 58%
    14:00 +35°C° 0.7 mm 2 m/s 749 mmHg 56%
    15:00 +35°C° 0.1 mm 2 m/s 749 mmHg 59%
    16:00 +34°C° 0.1 mm 2 m/s 749 mmHg 61%
    17:00 +32°C° 0.1 mm 2 m/s 749 mmHg 64%
    18:00 +31°C° 0.1 mm 2 m/s 749 mmHg 68%
    19:00 +30°C° 0.1 mm 2 m/s 750 mmHg 73%
    20:00 +29°C° 0.1 mm 2 m/s 750 mmHg 77%
    21:00 +28°C° 0.2 mm 1 m/s 750 mmHg 79%
    22:00 +28°C° 0.2 mm 1 m/s 751 mmHg 81%
    23:00 +28°C° 0.2 mm 1 m/s 751 mmHg 83%
    Arată mai mult